sat.trackr.live / text

‹ back to catalog

RSW-02

NORAD 49114 · 2021-076C

PAYLOAD ACTIVE UNKNOWN

§ Identity

Operator
Country
PRC
Launch date
2021-08-24
Launch site
JSC
Launch vehicle
Mass (kg)
RCS (m²)

External: N2YO · Heavens-Above · Gunter

§ Orbital elements

Epoch: 2026-05-25T03:59:23.580960Z

Period
107.23 min
Inclination
86.4107°
Eccentricity
0.0020726
Mean motion
13.42857915 rev/d
Perigee alt
1,083.2 km
Apogee alt
1,114.1 km
Semi-major
7,476.8 km
B*
1.4930e-4
RAAN
166.0203°
Arg perigee
122.9373°
Mean anomaly
237.3768°
Rev number
23,279

§ Raw data

RSW-021 49114U 21076C   26145.16624515  .00000101  00000+0  14930-3 0  99942 49114  86.4107 166.0203 0020726 122.9373 237.3768 13.42857915232793

JSON: /api/v1/satellites/49114 · /tle

For live sub-satellite position, see the globe view (requires WebGL).

§ Visibility from observer

Set your observer location to see the next 7 days of passes ≥ 10°. The values pass through the URL so the page stays shareable.

No JS? Fill the form by hand. The geolocation button needs JavaScript.